TimeEDT,TemperatureF,Dew PointF,Humidity,Sea Level PressureIn,VisibilityMPH,Wind Direction,Wind SpeedMPH,Gust SpeedMPH,PrecipitationIn,Events,Conditions,WindDirDegrees,DateUTC
12:53 AM,62.1,48.9,62,30.09,10.0,Calm,Calm,-,N/A,,Clear,0,2012-10-23 04:53:00
1:53 AM,62.6,48.2,59,30.12,10.0,Calm,Calm,-,N/A,,Clear,0,2012-10-23 05:53:00
2:53 AM,61.0,50.0,67,30.09,10.0,Calm,Calm,-,N/A,,Clear,0,2012-10-23 06:53:00
3:53 AM,60.1,50.0,69,30.09,10.0,Calm,Calm,-,N/A,,Clear,0,2012-10-23 07:53:00
4:53 AM,60.1,50.0,69,30.09,10.0,Calm,Calm,-,N/A,,Clear,0,2012-10-23 08:53:00
5:53 AM,60.1,50.0,69,30.10,10.0,Calm,Calm,-,N/A,,Clear,0,2012-10-23 09:53:00
6:53 AM,59.0,48.9,69,30.12,10.0,Calm,Calm,-,N/A,,Clear,0,2012-10-23 10:53:00
7:53 AM,57.0,48.9,74,30.13,10.0,Calm,Calm,-,N/A,,Clear,0,2012-10-23 11:53:00
8:53 AM,60.1,51.1,72,30.13,10.0,Calm,Calm,-,N/A,,Clear,0,2012-10-23 12:53:00
9:53 AM,63.0,51.1,65,30.14,10.0,Variable,3.5,-,N/A,,Clear,0,2012-10-23 13:53:00
10:53 AM,66.9,51.1,57,30.14,10.0,Calm,Calm,-,N/A,,Clear,0,2012-10-23 14:53:00
11:53 AM,73.9,52.0,46,30.15,10.0,Calm,Calm,-,N/A,,Scattered Clouds,0,2012-10-23 15:53:00
12:53 PM,77.0,52.0,42,30.14,10.0,Variable,5.8,-,N/A,,Mostly Cloudy,0,2012-10-23 16:53:00
1:53 PM,75.0,50.0,41,30.12,10.0,Calm,Calm,-,N/A,,Mostly Cloudy,0,2012-10-23 17:53:00
2:53 PM,77.0,50.0,39,30.09,10.0,Calm,Calm,-,N/A,,Clear,0,2012-10-23 18:53:00
3:53 PM,78.1,46.9,33,30.07,10.0,Variable,4.6,-,N/A,,Clear,0,2012-10-23 19:53:00
4:53 PM,77.0,45.0,32,30.07,10.0,WSW,4.6,-,N/A,,Clear,250,2012-10-23 20:53:00
5:53 PM,73.9,44.1,34,30.06,10.0,Calm,Calm,-,N/A,,Clear,0,2012-10-23 21:53:00
6:53 PM,73.0,43.0,34,30.06,10.0,Calm,Calm,-,N/A,,Clear,0,2012-10-23 22:53:00
7:53 PM,71.1,44.1,38,30.08,10.0,Calm,Calm,-,N/A,,Clear,0,2012-10-23 23:53:00
8:53 PM,70.0,44.1,39,30.07,10.0,Calm,Calm,-,N/A,,Clear,0,2012-10-24 00:53:00
9:53 PM,68.0,44.1,42,30.09,10.0,South,3.5,-,N/A,,Clear,170,2012-10-24 01:53:00
10:53 PM,64.9,45.0,48,30.09,10.0,SSW,3.5,-,N/A,,Clear,200,2012-10-24 02:53:00
11:53 PM,64.9,46.9,52,30.09,10.0,Variable,3.5,-,N/A,,Clear,0,2012-10-24 03:53:00